Вернуться в каталог

STARLINK-6139

АктивенСвязьVLEO
NORAD 57109·PAYLOAD·🇺🇸 United States

Запущен Jun 23, 2023 с Cape Canaveral Space Force Station

Loading…

Ближайшие Пролёты (ближайшие 24 часа)

TLE

СвежийSource: CelesTrak SupGP

Эпоха: Sep 14, 2026, 21:18 UTC

1 57109C 23090J   26257.88798611 -.00021908  00000+0 -79357-3 0  2578
2 57109  43.0036 293.4968 0001959 283.8265  43.4750 15.27585048    18

Отслеживайте STARLINK-6139 в реальном времени с AllMySat

Download on the App Store